カタログに戻る

STARLINK-36195

運用中通信VLEO
NORAD 67124·PAYLOAD·🇺🇸 United States

打ち上げ Dec 15, 2025 から Cape Canaveral Space Force Station

Loading…

次のパス (今後24時間)

TLE

最新Source: CelesTrak SupGP

元期: Sep 15, 2026, 02:36 UTC

1 67124C 25299Y   26258.10881944 -.00047908  00000+0 -17353-2 0  2583
2 67124  43.0000 178.7855 0001300 273.1898 346.2298 15.27601471    11

AllMySatでSTARLINK-36195をリアルタイム追跡

Download on the App Store